Year,Month,Day,Hour,Minute,Value (Times are PST for insolation in W/m^2)
2005,07,01,00,00,0.00
2005,07,01,00,01,0.00
2005,07,01,00,02,0.00
2005,07,01,00,03,0.00
2005,07,01,00,04,0.00
2005,07,01,00,05,0.00
2005,07,01,00,06,0.00
2005,07,01,00,07,0.00
2005,07,01,00,08,0.00
2005,07,01,00,09,0.00
2005,07,01,00,10,0.00
2005,07,01,00,11,0.00
2005,07,01,00,12,0.00
2005,07,01,00,13,0.00
2005,07,01,00,14,0.00
2005,07,01,00,15,0.00
2005,07,01,00,16,0.00
2005,07,01,00,17,0.00
2005,07,01,00,18,0.00
2005,07,01,00,19,0.00
2005,07,01,00,20,0.00
2005,07,01,00,21,0.00
2005,07,01,00,22,0.00
2005,07,01,00,23,0.00
2005,07,01,00,24,0.00
2005,07,01,00,25,0.00
2005,07,01,00,26,0.00
2005,07,01,00,27,0.00
2005,07,01,00,28,0.00
2005,07,01,00,29,0.00
2005,07,01,00,30,0.00
2005,07,01,00,31,0.00
2005,07,01,00,32,0.00
2005,07,01,00,33,0.00
2005,07,01,00,34,0.00
2005,07,01,00,35,0.00
2005,07,01,00,36,0.00
2005,07,01,00,37,0.00
2005,07,01,00,38,0.00
2005,07,01,00,39,0.00
2005,07,01,00,40,0.00
2005,07,01,00,41,0.00
2005,07,01,00,42,0.00
2005,07,01,00,43,0.00
2005,07,01,00,44,0.00
2005,07,01,00,45,0.00
2005,07,01,00,46,0.00
2005,07,01,00,47,0.00
2005,07,01,00,48,0.00
2005,07,01,00,49,0.00
2005,07,01,00,50,0.00
2005,07,01,00,51,0.00
2005,07,01,00,52,0.00
2005,07,01,00,53,0.00
2005,07,01,00,54,0.00
2005,07,01,00,55,0.00
2005,07,01,00,56,0.00
2005,07,01,00,57,0.00
2005,07,01,00,58,0.00
2005,07,01,00,59,0.00
2005,07,01,01,00,0.00
2005,07,01,01,01,0.00
2005,07,01,01,02,0.00
2005,07,01,01,03,0.00
2005,07,01,01,04,0.00
2005,07,01,01,05,0.00
2005,07,01,01,06,0.00
2005,07,01,01,07,0.00
2005,07,01,01,08,0.00
2005,07,01,01,09,0.00
2005,07,01,01,10,0.00
2005,07,01,01,11,0.00
2005,07,01,01,12,0.00
2005,07,01,01,13,0.00
2005,07,01,01,14,0.00
2005,07,01,01,15,0.00
2005,07,01,01,16,0.00
2005,07,01,01,17,0.00
2005,07,01,01,18,0.00
2005,07,01,01,19,0.00
2005,07,01,01,20,0.00
2005,07,01,01,21,0.00
2005,07,01,01,22,0.00
2005,07,01,01,23,0.00
2005,07,01,01,24,0.00
2005,07,01,01,25,0.00
2005,07,01,01,26,0.00
2005,07,01,01,27,0.00
2005,07,01,01,28,0.00
2005,07,01,01,29,0.00
2005,07,01,01,30,0.00
2005,07,01,01,31,0.00
2005,07,01,01,32,0.00
2005,07,01,01,33,0.00
2005,07,01,01,34,0.00
2005,07,01,01,35,0.00
2005,07,01,01,36,0.00
2005,07,01,01,37,0.00
2005,07,01,01,38,0.00
2005,07,01,01,39,0.00
2005,07,01,01,40,0.00
2005,07,01,01,41,0.00
2005,07,01,01,42,0.00
2005,07,01,01,43,0.00
2005,07,01,01,44,0.00
2005,07,01,01,45,0.00
2005,07,01,01,46,0.00
2005,07,01,01,47,0.00
2005,07,01,01,48,0.00
2005,07,01,01,49,0.00
2005,07,01,01,50,0.00
2005,07,01,01,51,0.00
2005,07,01,01,52,0.00
2005,07,01,01,53,0.00
2005,07,01,01,54,0.00
2005,07,01,01,55,0.00
2005,07,01,01,56,0.00
2005,07,01,01,57,0.00
2005,07,01,01,58,0.00
2005,07,01,01,59,0.00
2005,07,01,02,00,0.00
2005,07,01,02,01,0.00
2005,07,01,02,02,0.00
2005,07,01,02,03,0.00
2005,07,01,02,04,0.00
2005,07,01,02,05,0.00
2005,07,01,02,06,0.00
2005,07,01,02,07,0.00
2005,07,01,02,08,0.00
2005,07,01,02,09,0.00
2005,07,01,02,10,0.00
2005,07,01,02,11,0.00
2005,07,01,02,12,0.00
2005,07,01,02,13,0.00
2005,07,01,02,14,0.00
2005,07,01,02,15,0.00
2005,07,01,02,16,0.00
2005,07,01,02,17,0.00
2005,07,01,02,18,0.00
2005,07,01,02,19,0.00
2005,07,01,02,20,0.00
2005,07,01,02,21,0.00
2005,07,01,02,22,0.00
2005,07,01,02,23,0.00
2005,07,01,02,24,0.00
2005,07,01,02,25,0.00
2005,07,01,02,26,0.00
2005,07,01,02,27,0.00
2005,07,01,02,28,0.00
2005,07,01,02,29,0.00
2005,07,01,02,30,0.00
2005,07,01,02,31,0.00
2005,07,01,02,32,0.00
2005,07,01,02,33,0.00
2005,07,01,02,34,0.00
2005,07,01,02,35,0.00
2005,07,01,02,36,0.00
2005,07,01,02,37,0.00
2005,07,01,02,38,0.00
2005,07,01,02,39,0.00
2005,07,01,02,40,0.00
2005,07,01,02,41,0.00
2005,07,01,02,42,0.00
2005,07,01,02,43,0.00
2005,07,01,02,44,0.00
2005,07,01,02,45,0.00
2005,07,01,02,46,0.00
2005,07,01,02,47,0.00
2005,07,01,02,48,0.00
2005,07,01,02,49,0.00
2005,07,01,02,50,0.00
2005,07,01,02,51,0.00
2005,07,01,02,52,0.00
2005,07,01,02,53,0.00
2005,07,01,02,54,0.00
2005,07,01,02,55,0.00
2005,07,01,02,56,0.00
2005,07,01,02,57,0.00
2005,07,01,02,58,0.00
2005,07,01,02,59,0.00
2005,07,01,03,00,0.00
2005,07,01,03,01,0.00
2005,07,01,03,02,0.00
2005,07,01,03,03,0.00
2005,07,01,03,04,0.00
2005,07,01,03,05,0.00
2005,07,01,03,06,0.00
2005,07,01,03,07,0.00
2005,07,01,03,08,0.00
2005,07,01,03,09,0.00
2005,07,01,03,10,0.00
2005,07,01,03,11,0.00
2005,07,01,03,12,0.00
2005,07,01,03,13,0.00
2005,07,01,03,14,0.00
2005,07,01,03,15,0.00
2005,07,01,03,16,0.00
2005,07,01,03,17,0.00
2005,07,01,03,18,0.00
2005,07,01,03,19,0.00
2005,07,01,03,20,0.00
2005,07,01,03,21,0.00
2005,07,01,03,22,0.00
2005,07,01,03,23,0.00
2005,07,01,03,24,0.00
2005,07,01,03,25,0.00
2005,07,01,03,26,0.00
2005,07,01,03,27,0.00
2005,07,01,03,28,0.00
2005,07,01,03,29,0.00
2005,07,01,03,30,0.00
2005,07,01,03,31,0.00
2005,07,01,03,32,0.00
2005,07,01,03,33,0.00
2005,07,01,03,34,0.00
2005,07,01,03,35,0.00
2005,07,01,03,36,0.00
2005,07,01,03,37,0.00
2005,07,01,03,38,0.00
2005,07,01,03,39,0.00
2005,07,01,03,40,0.00
2005,07,01,03,41,0.00
2005,07,01,03,42,0.00
2005,07,01,03,43,0.00
2005,07,01,03,44,0.00
2005,07,01,03,45,0.00
2005,07,01,03,46,0.00
2005,07,01,03,47,0.00
2005,07,01,03,48,0.00
2005,07,01,03,49,0.00
2005,07,01,03,50,0.00
2005,07,01,03,51,0.00
2005,07,01,03,52,0.00
2005,07,01,03,53,0.00
2005,07,01,03,54,0.00
2005,07,01,03,55,0.00
2005,07,01,03,56,0.00
2005,07,01,03,57,0.00
2005,07,01,03,58,0.00
2005,07,01,03,59,0.00
2005,07,01,04,00,0.00
2005,07,01,04,01,0.00
2005,07,01,04,02,0.00
2005,07,01,04,03,0.00
2005,07,01,04,04,0.00
2005,07,01,04,05,0.00
2005,07,01,04,06,0.00
2005,07,01,04,07,0.00
2005,07,01,04,08,0.00
2005,07,01,04,09,0.00
2005,07,01,04,10,0.00
2005,07,01,04,11,0.00
2005,07,01,04,12,0.00
2005,07,01,04,13,0.00
2005,07,01,04,14,0.00
2005,07,01,04,15,0.00
2005,07,01,04,16,0.00
2005,07,01,04,17,0.00
2005,07,01,04,18,0.00
2005,07,01,04,19,0.00
2005,07,01,04,20,0.00
2005,07,01,04,21,0.00
2005,07,01,04,22,0.00
2005,07,01,04,23,0.00
2005,07,01,04,24,0.00
2005,07,01,04,25,0.00
2005,07,01,04,26,0.00
2005,07,01,04,27,0.00
2005,07,01,04,28,0.00
2005,07,01,04,29,0.00
2005,07,01,04,30,0.00
2005,07,01,04,31,0.00
2005,07,01,04,32,0.00
2005,07,01,04,33,0.00
2005,07,01,04,34,0.00
2005,07,01,04,35,0.00
2005,07,01,04,36,0.00
2005,07,01,04,37,0.00
2005,07,01,04,38,0.00
2005,07,01,04,39,0.00
2005,07,01,04,40,0.00
2005,07,01,04,41,0.00
2005,07,01,04,42,0.00
2005,07,01,04,43,0.00
2005,07,01,04,44,0.00
2005,07,01,04,45,0.00
2005,07,01,04,46,0.00
2005,07,01,04,47,0.00
2005,07,01,04,48,0.00
2005,07,01,04,49,0.00
2005,07,01,04,50,0.00
2005,07,01,04,51,0.00
2005,07,01,04,52,0.00
2005,07,01,04,53,0.00
2005,07,01,04,54,0.00
2005,07,01,04,55,0.00
2005,07,01,04,56,0.00
2005,07,01,04,57,0.00
2005,07,01,04,58,0.00
2005,07,01,04,59,0.00
2005,07,01,05,00,0.00
2005,07,01,05,01,0.00
2005,07,01,05,02,0.00
2005,07,01,05,03,0.00
2005,07,01,05,04,0.00
2005,07,01,05,05,0.00
2005,07,01,05,06,0.00
2005,07,01,05,07,0.00
2005,07,01,05,08,0.00
2005,07,01,05,09,0.00
2005,07,01,05,10,0.00
2005,07,01,05,11,0.00
2005,07,01,05,12,0.00
2005,07,01,05,13,0.00
2005,07,01,05,14,0.50
2005,07,01,05,15,5.00
2005,07,01,05,16,5.00
2005,07,01,05,17,5.00
2005,07,01,05,18,5.00
2005,07,01,05,19,5.00
2005,07,01,05,20,7.00
2005,07,01,05,21,7.00
2005,07,01,05,22,7.00
2005,07,01,05,23,7.00
2005,07,01,05,24,8.50
2005,07,01,05,25,9.00
2005,07,01,05,26,9.00
2005,07,01,05,27,9.60
2005,07,01,05,28,11.00
2005,07,01,05,29,11.00
2005,07,01,05,30,11.00
2005,07,01,05,31,11.90
2005,07,01,05,32,12.00
2005,07,01,05,33,12.00
2005,07,01,05,34,13.00
2005,07,01,05,35,14.00
2005,07,01,05,36,14.00
2005,07,01,05,37,14.00
2005,07,01,05,38,14.00
2005,07,01,05,39,14.00
2005,07,01,05,40,15.80
2005,07,01,05,41,18.00
2005,07,01,05,42,18.00
2005,07,01,05,43,18.00
2005,07,01,05,44,19.00
2005,07,01,05,45,24.00
2005,07,01,05,46,28.10
2005,07,01,05,47,30.00
2005,07,01,05,48,32.30
2005,07,01,05,49,35.20
2005,07,01,05,50,37.50
2005,07,01,05,51,39.40
2005,07,01,05,52,41.10
2005,07,01,05,53,43.50
2005,07,01,05,54,45.70
2005,07,01,05,55,47.30
2005,07,01,05,56,49.60
2005,07,01,05,57,51.80
2005,07,01,05,58,53.50
2005,07,01,05,59,55.50
2005,07,01,06,00,57.70
2005,07,01,06,01,60.30
2005,07,01,06,02,62.30
2005,07,01,06,03,63.80
2005,07,01,06,04,66.20
2005,07,01,06,05,68.50
2005,07,01,06,06,71.70
2005,07,01,06,07,74.40
2005,07,01,06,08,76.30
2005,07,01,06,09,77.90
2005,07,01,06,10,81.40
2005,07,01,06,11,85.40
2005,07,01,06,12,89.40
2005,07,01,06,13,93.80
2005,07,01,06,14,97.00
2005,07,01,06,15,101.00
2005,07,01,06,16,107.50
2005,07,01,06,17,112.00
2005,07,01,06,18,113.70
2005,07,01,06,19,120.60
2005,07,01,06,20,124.80
2005,07,01,06,21,129.90
2005,07,01,06,22,133.90
2005,07,01,06,23,136.60
2005,07,01,06,24,140.90
2005,07,01,06,25,144.50
2005,07,01,06,26,147.10
2005,07,01,06,27,150.00
2005,07,01,06,28,152.30
2005,07,01,06,29,155.60
2005,07,01,06,30,158.20
2005,07,01,06,31,160.50
2005,07,01,06,32,162.40
2005,07,01,06,33,163.00
2005,07,01,06,34,164.30
2005,07,01,06,35,154.80
2005,07,01,06,36,161.50
2005,07,01,06,37,129.30
2005,07,01,06,38,130.60
2005,07,01,06,39,143.80
2005,07,01,06,40,163.80
2005,07,01,06,41,177.10
2005,07,01,06,42,180.70
2005,07,01,06,43,179.00
2005,07,01,06,44,181.70
2005,07,01,06,45,193.70
2005,07,01,06,46,204.20
2005,07,01,06,47,208.90
2005,07,01,06,48,214.60
2005,07,01,06,49,219.10
2005,07,01,06,50,221.90
2005,07,01,06,51,224.20
2005,07,01,06,52,219.80
2005,07,01,06,53,136.30
2005,07,01,06,54,114.00
2005,07,01,06,55,156.70
2005,07,01,06,56,202.00
2005,07,01,06,57,139.60
2005,07,01,06,58,103.80
2005,07,01,06,59,97.10
2005,07,01,07,00,97.00
2005,07,01,07,01,96.30
2005,07,01,07,02,95.00
2005,07,01,07,03,112.70
2005,07,01,07,04,191.80
2005,07,01,07,05,234.70
2005,07,01,07,06,240.20
2005,07,01,07,07,244.00
2005,07,01,07,08,244.00
2005,07,01,07,09,254.40
2005,07,01,07,10,273.50
2005,07,01,07,11,283.40
2005,07,01,07,12,291.20
2005,07,01,07,13,298.80
2005,07,01,07,14,307.90
2005,07,01,07,15,314.50
2005,07,01,07,16,321.90
2005,07,01,07,17,330.60
2005,07,01,07,18,337.50
2005,07,01,07,19,343.10
2005,07,01,07,20,346.00
2005,07,01,07,21,348.80
2005,07,01,07,22,351.70
2005,07,01,07,23,355.30
2005,07,01,07,24,357.00
2005,07,01,07,25,357.00
2005,07,01,07,26,357.00
2005,07,01,07,27,363.60
2005,07,01,07,28,304.80
2005,07,01,07,29,307.60
2005,07,01,07,30,333.60
2005,07,01,07,31,272.00
2005,07,01,07,32,218.60
2005,07,01,07,33,157.70
2005,07,01,07,34,149.10
2005,07,01,07,35,148.20
2005,07,01,07,36,150.40
2005,07,01,07,37,157.30
2005,07,01,07,38,156.60
2005,07,01,07,39,158.50
2005,07,01,07,40,158.40
2005,07,01,07,41,162.00
2005,07,01,07,42,162.40
2005,07,01,07,43,163.00
2005,07,01,07,44,163.00
2005,07,01,07,45,163.00
2005,07,01,07,46,163.00
2005,07,01,07,47,162.00
2005,07,01,07,48,156.90
2005,07,01,07,49,152.90
2005,07,01,07,50,149.10
2005,07,01,07,51,144.80
2005,07,01,07,52,144.00
2005,07,01,07,53,142.30
2005,07,01,07,54,137.00
2005,07,01,07,55,137.00
2005,07,01,07,56,137.00
2005,07,01,07,57,138.70
2005,07,01,07,58,141.10
2005,07,01,07,59,142.00
2005,07,01,08,00,143.80
2005,07,01,08,01,146.00
2005,07,01,08,02,146.00
2005,07,01,08,03,147.70
2005,07,01,08,04,149.30
2005,07,01,08,05,150.50
2005,07,01,08,06,148.60
2005,07,01,08,07,148.00
2005,07,01,08,08,148.00
2005,07,01,08,09,146.30
2005,07,01,08,10,144.00
2005,07,01,08,11,144.00
2005,07,01,08,12,144.00
2005,07,01,08,13,144.00
2005,07,01,08,14,144.00
2005,07,01,08,15,145.90
2005,07,01,08,16,148.60
2005,07,01,08,17,151.00
2005,07,01,08,18,152.90
2005,07,01,08,19,156.90
2005,07,01,08,20,169.10
2005,07,01,08,21,161.40
2005,07,01,08,22,163.00
2005,07,01,08,23,163.00
2005,07,01,08,24,164.10
2005,07,01,08,25,165.00
2005,07,01,08,26,169.80
2005,07,01,08,27,170.80
2005,07,01,08,28,169.00
2005,07,01,08,29,169.70
2005,07,01,08,30,172.50
2005,07,01,08,31,175.30
2005,07,01,08,32,176.00
2005,07,01,08,33,179.20
2005,07,01,08,34,181.00
2005,07,01,08,35,181.00
2005,07,01,08,36,182.10
2005,07,01,08,37,183.00
2005,07,01,08,38,185.60
2005,07,01,08,39,186.20
2005,07,01,08,40,188.60
2005,07,01,08,41,190.00
2005,07,01,08,42,193.90
2005,07,01,08,43,197.00
2005,07,01,08,44,201.20
2005,07,01,08,45,206.40
2005,07,01,08,46,209.60
2005,07,01,08,47,211.00
2005,07,01,08,48,211.00
2005,07,01,08,49,212.50
2005,07,01,08,50,213.10
2005,07,01,08,51,216.00
2005,07,01,08,52,216.60
2005,07,01,08,53,219.40
2005,07,01,08,54,222.20
2005,07,01,08,55,226.00
2005,07,01,08,56,229.70
2005,07,01,08,57,236.00
2005,07,01,08,58,238.30
2005,07,01,08,59,245.00
2005,07,01,09,00,247.30
2005,07,01,09,01,249.60
2005,07,01,09,02,250.00
2005,07,01,09,03,250.20
2005,07,01,09,04,251.70
2005,07,01,09,05,253.00
2005,07,01,09,06,254.30
2005,07,01,09,07,257.40
2005,07,01,09,08,257.90
2005,07,01,09,09,259.00
2005,07,01,09,10,260.20
2005,07,01,09,11,255.00
2005,07,01,09,12,267.30
2005,07,01,09,13,260.80
2005,07,01,09,14,260.10
2005,07,01,09,15,264.40
2005,07,01,09,16,268.20
2005,07,01,09,17,262.90
2005,07,01,09,18,267.20
2005,07,01,09,19,276.60
2005,07,01,09,20,280.50
2005,07,01,09,21,278.20
2005,07,01,09,22,274.00
2005,07,01,09,23,267.10
2005,07,01,09,24,255.90
2005,07,01,09,25,250.40
2005,07,01,09,26,237.20
2005,07,01,09,27,221.90
2005,07,01,09,28,206.10
2005,07,01,09,29,201.20
2005,07,01,09,30,203.40
2005,07,01,09,31,205.00
2005,07,01,09,32,187.50
2005,07,01,09,33,169.80
2005,07,01,09,34,158.70
2005,07,01,09,35,155.60
2005,07,01,09,36,156.00
2005,07,01,09,37,165.60
2005,07,01,09,38,162.80
2005,07,01,09,39,163.80
2005,07,01,09,40,176.00
2005,07,01,09,41,195.60
2005,07,01,09,42,214.80
2005,07,01,09,43,222.80
2005,07,01,09,44,221.90
2005,07,01,09,45,214.90
2005,07,01,09,46,209.00
2005,07,01,09,47,215.90
2005,07,01,09,48,232.80
2005,07,01,09,49,245.70
2005,07,01,09,50,249.00
2005,07,01,09,51,246.70
2005,07,01,09,52,248.00
2005,07,01,09,53,256.20
2005,07,01,09,54,254.40
2005,07,01,09,55,253.00
2005,07,01,09,56,256.50
2005,07,01,09,57,264.10
2005,07,01,09,58,255.10
2005,07,01,09,59,257.20
2005,07,01,10,00,277.90
2005,07,01,10,01,292.80
2005,07,01,10,02,298.80
2005,07,01,10,03,305.80
2005,07,01,10,04,306.80
2005,07,01,10,05,303.20
2005,07,01,10,06,302.00
2005,07,01,10,07,309.10
2005,07,01,10,08,315.90
2005,07,01,10,09,321.30
2005,07,01,10,10,330.40
2005,07,01,10,11,339.20
2005,07,01,10,12,363.10
2005,07,01,10,13,343.80
2005,07,01,10,14,333.60
2005,07,01,10,15,317.00
2005,07,01,10,16,299.60
2005,07,01,10,17,286.50
2005,07,01,10,18,283.00
2005,07,01,10,19,276.90
2005,07,01,10,20,270.30
2005,07,01,10,21,274.00
2005,07,01,10,22,279.00
2005,07,01,10,23,279.00
2005,07,01,10,24,266.00
2005,07,01,10,25,267.10
2005,07,01,10,26,258.20
2005,07,01,10,27,254.00
2005,07,01,10,28,254.30
2005,07,01,10,29,263.00
2005,07,01,10,30,260.20
2005,07,01,10,31,237.50
2005,07,01,10,32,222.40
2005,07,01,10,33,232.70
2005,07,01,10,34,239.00
2005,07,01,10,35,231.40
2005,07,01,10,36,206.50
2005,07,01,10,37,182.10
2005,07,01,10,38,175.90
2005,07,01,10,39,199.30
2005,07,01,10,40,231.10
2005,07,01,10,41,244.60
2005,07,01,10,42,240.70
2005,07,01,10,43,217.40
2005,07,01,10,44,215.70
2005,07,01,10,45,234.90
2005,07,01,10,46,250.50
2005,07,01,10,47,257.50
2005,07,01,10,48,257.80
2005,07,01,10,49,257.30
2005,07,01,10,50,257.60
2005,07,01,10,51,255.80
2005,07,01,10,52,256.50
2005,07,01,10,53,260.10
2005,07,01,10,54,269.40
2005,07,01,10,55,285.30
2005,07,01,10,56,299.90
2005,07,01,10,57,297.20
2005,07,01,10,58,295.00
2005,07,01,10,59,295.00
2005,07,01,11,00,310.40
2005,07,01,11,01,319.40
2005,07,01,11,02,324.20
2005,07,01,11,03,328.30
2005,07,01,11,04,329.00
2005,07,01,11,05,329.00
2005,07,01,11,06,331.10
2005,07,01,11,07,343.90
2005,07,01,11,08,357.50
2005,07,01,11,09,360.70
2005,07,01,11,10,353.60
2005,07,01,11,11,339.30
2005,07,01,11,12,330.80
2005,07,01,11,13,326.30
2005,07,01,11,14,321.50
2005,07,01,11,15,315.90
2005,07,01,11,16,315.00
2005,07,01,11,17,314.10
2005,07,01,11,18,304.80
2005,07,01,11,19,300.20
2005,07,01,11,20,300.10
2005,07,01,11,21,304.70
2005,07,01,11,22,313.60
2005,07,01,11,23,331.90
2005,07,01,11,24,348.00
2005,07,01,11,25,348.00
2005,07,01,11,26,369.50
2005,07,01,11,27,389.20
2005,07,01,11,28,385.80
2005,07,01,11,29,379.70
2005,07,01,11,30,380.10
2005,07,01,11,31,387.10
2005,07,01,11,32,380.60
2005,07,01,11,33,373.00
2005,07,01,11,34,373.00
2005,07,01,11,35,371.50
2005,07,01,11,36,376.70
2005,07,01,11,37,383.00
2005,07,01,11,38,381.80
2005,07,01,11,39,378.80
2005,07,01,11,40,378.00
2005,07,01,11,41,376.40
2005,07,01,11,42,367.80
2005,07,01,11,43,375.50
2005,07,01,11,44,384.40
2005,07,01,11,45,397.50
2005,07,01,11,46,401.30
2005,07,01,11,47,405.80
2005,07,01,11,48,410.60
2005,07,01,11,49,393.00
2005,07,01,11,50,360.40
2005,07,01,11,51,346.80
2005,07,01,11,52,338.90
2005,07,01,11,53,328.40
2005,07,01,11,54,326.00
2005,07,01,11,55,330.40
2005,07,01,11,56,320.50
2005,07,01,11,57,309.60
2005,07,01,11,58,309.70
2005,07,01,11,59,318.80
2005,07,01,12,00,326.20
2005,07,01,12,01,319.70
2005,07,01,12,02,307.30
2005,07,01,12,03,301.50
2005,07,01,12,04,300.10
2005,07,01,12,05,295.00
2005,07,01,12,06,309.60
2005,07,01,12,07,323.90
2005,07,01,12,08,330.70
2005,07,01,12,09,329.50
2005,07,01,12,10,323.90
2005,07,01,12,11,327.80
2005,07,01,12,12,322.60
2005,07,01,12,13,320.00
2005,07,01,12,14,309.70
2005,07,01,12,15,304.30
2005,07,01,12,16,312.90
2005,07,01,12,17,328.40
2005,07,01,12,18,348.20
2005,07,01,12,19,362.40
2005,07,01,12,20,366.80
2005,07,01,12,21,368.90
2005,07,01,12,22,370.20
2005,07,01,12,23,365.30
2005,07,01,12,24,366.40
2005,07,01,12,25,374.40
2005,07,01,12,26,381.90
2005,07,01,12,27,386.60
2005,07,01,12,28,386.00
2005,07,01,12,29,379.70
2005,07,01,12,30,371.60
2005,07,01,12,31,369.00
2005,07,01,12,32,363.10
2005,07,01,12,33,357.50
2005,07,01,12,34,364.50
2005,07,01,12,35,398.20
2005,07,01,12,36,420.10
2005,07,01,12,37,450.60
2005,07,01,12,38,458.40
2005,07,01,12,39,435.60
2005,07,01,12,40,443.50
2005,07,01,12,41,535.40
2005,07,01,12,42,566.40
2005,07,01,12,43,606.80
2005,07,01,12,44,628.00
2005,07,01,12,45,685.40
2005,07,01,12,46,1200.00
2005,07,01,12,47,1192.10
2005,07,01,12,48,1187.40
2005,07,01,12,49,1163.40
2005,07,01,12,50,1119.30
2005,07,01,12,51,1185.00
2005,07,01,12,52,1026.60
2005,07,01,12,53,657.00
2005,07,01,12,54,657.00
2005,07,01,12,55,657.00
2005,07,01,12,56,657.00
2005,07,01,12,57,1175.90
2005,07,01,12,58,1199.00
2005,07,01,12,59,1199.00
2005,07,01,13,00,1199.00
2005,07,01,13,01,1199.00
2005,07,01,13,02,1199.00
2005,07,01,13,03,1199.00
2005,07,01,13,04,1199.00
2005,07,01,13,05,1199.00
2005,07,01,13,06,1206.80
2005,07,01,13,07,1180.20
2005,07,01,13,08,1172.00
2005,07,01,13,09,1183.00
2005,07,01,13,10,1214.80
2005,07,01,13,11,1189.40
2005,07,01,13,12,1162.90
2005,07,01,13,13,1113.80
2005,07,01,13,14,1086.80
2005,07,01,13,15,1070.50
2005,07,01,13,16,1042.60
2005,07,01,13,17,1055.50
2005,07,01,13,18,1063.00
2005,07,01,13,19,1063.00
2005,07,01,13,20,1055.20
2005,07,01,13,21,1058.20
2005,07,01,13,22,1076.80
2005,07,01,13,23,1092.60
2005,07,01,13,24,1106.80
2005,07,01,13,25,1112.20
2005,07,01,13,26,1108.20
2005,07,01,13,27,1118.80
2005,07,01,13,28,1110.90
2005,07,01,13,29,1049.70
2005,07,01,13,30,966.80
2005,07,01,13,31,951.00
2005,07,01,13,32,1050.20
2005,07,01,13,33,1065.10
2005,07,01,13,34,1077.80
2005,07,01,13,35,1086.00
2005,07,01,13,36,1080.00
2005,07,01,13,37,1088.70
2005,07,01,13,38,1101.10
2005,07,01,13,39,1119.30
2005,07,01,13,40,1105.60
2005,07,01,13,41,1075.20
2005,07,01,13,42,1113.10
2005,07,01,13,43,1133.60
2005,07,01,13,44,1113.50
2005,07,01,13,45,1113.30
2005,07,01,13,46,1096.50
2005,07,01,13,47,1066.50
2005,07,01,13,48,1056.00
2005,07,01,13,49,1067.80
2005,07,01,13,50,1072.00
2005,07,01,13,51,1072.00
2005,07,01,13,52,877.00
2005,07,01,13,53,682.00
2005,07,01,13,54,1068.40
2005,07,01,13,55,1165.00
2005,07,01,13,56,1165.00
2005,07,01,13,57,1165.00
2005,07,01,13,58,1026.50
2005,07,01,13,59,888.00
2005,07,01,14,00,888.00
2005,07,01,14,01,888.00
2005,07,01,14,02,888.00
2005,07,01,14,03,888.00
2005,07,01,14,04,1029.30
2005,07,01,14,05,1117.30
2005,07,01,14,06,1111.00
2005,07,01,14,07,999.00
2005,07,01,14,08,391.30
2005,07,01,14,09,442.40
2005,07,01,14,10,418.40
2005,07,01,14,11,374.70
2005,07,01,14,12,402.00
2005,07,01,14,13,405.60
2005,07,01,14,14,371.10
2005,07,01,14,15,350.20
2005,07,01,14,16,384.80
2005,07,01,14,17,427.50
2005,07,01,14,18,423.20
2005,07,01,14,19,372.50
2005,07,01,14,20,397.70
2005,07,01,14,21,442.10
2005,07,01,14,22,474.20
2005,07,01,14,23,489.00
2005,07,01,14,24,666.30
2005,07,01,14,25,686.00
2005,07,01,14,26,686.00
2005,07,01,14,27,570.50
2005,07,01,14,28,460.70
2005,07,01,14,29,486.50
2005,07,01,14,30,560.70
2005,07,01,14,31,496.60
2005,07,01,14,32,424.00
2005,07,01,14,33,410.50
2005,07,01,14,34,407.50
2005,07,01,14,35,417.20
2005,07,01,14,36,438.40
2005,07,01,14,37,438.80
2005,07,01,14,38,404.20
2005,07,01,14,39,383.90
2005,07,01,14,40,387.50
2005,07,01,14,41,387.50
2005,07,01,14,42,385.00
2005,07,01,14,43,384.00
2005,07,01,14,44,379.70
2005,07,01,14,45,375.80
2005,07,01,14,46,374.00
2005,07,01,14,47,374.00
2005,07,01,14,48,354.30
2005,07,01,14,49,347.40
2005,07,01,14,50,345.50
2005,07,01,14,51,337.50
2005,07,01,14,52,322.20
2005,07,01,14,53,312.00
2005,07,01,14,54,314.60
2005,07,01,14,55,325.70
2005,07,01,14,56,327.50
2005,07,01,14,57,322.00
2005,07,01,14,58,287.00
2005,07,01,14,59,274.20
2005,07,01,15,00,285.40
2005,07,01,15,01,301.60
2005,07,01,15,02,326.40
2005,07,01,15,03,346.80
2005,07,01,15,04,347.60
2005,07,01,15,05,336.90
2005,07,01,15,06,334.00
2005,07,01,15,07,334.00
2005,07,01,15,08,335.90
2005,07,01,15,09,332.80
2005,07,01,15,10,309.50
2005,07,01,15,11,293.70
2005,07,01,15,12,298.00
2005,07,01,15,13,304.20
2005,07,01,15,14,308.00
2005,07,01,15,15,289.50
2005,07,01,15,16,262.80
2005,07,01,15,17,251.20
2005,07,01,15,18,244.20
2005,07,01,15,19,240.60
2005,07,01,15,20,243.50
2005,07,01,15,21,234.20
2005,07,01,15,22,218.20
2005,07,01,15,23,211.90
2005,07,01,15,24,222.00
2005,07,01,15,25,246.90
2005,07,01,15,26,290.50
2005,07,01,15,27,322.40
2005,07,01,15,28,336.20
2005,07,01,15,29,337.90
2005,07,01,15,30,324.00
2005,07,01,15,31,306.10
2005,07,01,15,32,301.50
2005,07,01,15,33,282.10
2005,07,01,15,34,256.30
2005,07,01,15,35,234.10
2005,07,01,15,36,222.10
2005,07,01,15,37,220.00
2005,07,01,15,38,220.00
2005,07,01,15,39,218.50
2005,07,01,15,40,211.20
2005,07,01,15,41,201.20
2005,07,01,15,42,197.00
2005,07,01,15,43,196.10
2005,07,01,15,44,189.80
2005,07,01,15,45,185.20
2005,07,01,15,46,183.20
2005,07,01,15,47,182.60
2005,07,01,15,48,180.40
2005,07,01,15,49,175.50
2005,07,01,15,50,170.10
2005,07,01,15,51,169.00
2005,07,01,15,52,168.70
2005,07,01,15,53,163.80
2005,07,01,15,54,168.50
2005,07,01,15,55,171.40
2005,07,01,15,56,173.30
2005,07,01,15,57,172.40
2005,07,01,15,58,171.10
2005,07,01,15,59,171.20
2005,07,01,16,00,173.50
2005,07,01,16,01,177.00
2005,07,01,16,02,178.60
2005,07,01,16,03,178.20
2005,07,01,16,04,175.80
2005,07,01,16,05,173.50
2005,07,01,16,06,173.70
2005,07,01,16,07,178.60
2005,07,01,16,08,185.60
2005,07,01,16,09,192.20
2005,07,01,16,10,199.10
2005,07,01,16,11,203.30
2005,07,01,16,12,209.40
2005,07,01,16,13,217.60
2005,07,01,16,14,231.50
2005,07,01,16,15,248.60
2005,07,01,16,16,270.50
2005,07,01,16,17,298.40
2005,07,01,16,18,326.40
2005,07,01,16,19,341.00
2005,07,01,16,20,357.70
2005,07,01,16,21,337.20
2005,07,01,16,22,342.20
2005,07,01,16,23,361.80
2005,07,01,16,24,383.10
2005,07,01,16,25,410.60
2005,07,01,16,26,417.00
2005,07,01,16,27,409.80
2005,07,01,16,28,421.20
2005,07,01,16,29,438.00
2005,07,01,16,30,492.50
2005,07,01,16,31,557.20
2005,07,01,16,32,583.70
2005,07,01,16,33,665.50
2005,07,01,16,34,742.00
2005,07,01,16,35,742.00
2005,07,01,16,36,643.10
2005,07,01,16,37,540.30
2005,07,01,16,38,533.00
2005,07,01,16,39,440.80
2005,07,01,16,40,388.00
2005,07,01,16,41,345.80
2005,07,01,16,42,319.50
2005,07,01,16,43,304.20
2005,07,01,16,44,293.80
2005,07,01,16,45,268.50
2005,07,01,16,46,232.50
2005,07,01,16,47,206.40
2005,07,01,16,48,187.30
2005,07,01,16,49,172.80
2005,07,01,16,50,161.40
2005,07,01,16,51,148.20
2005,07,01,16,52,141.00
2005,07,01,16,53,146.90
2005,07,01,16,54,164.40
2005,07,01,16,55,184.60
2005,07,01,16,56,202.50
2005,07,01,16,57,211.80
2005,07,01,16,58,218.40
2005,07,01,16,59,229.90
2005,07,01,17,00,238.90
2005,07,01,17,01,237.50
2005,07,01,17,02,224.90